Theta_e
339 336 326 319 307 307 302 309 312 308 306 309 311 309 306 306 305 302 319 326 339 337 342 350 354 354 352 352 351 351 350 349 346 345 344 342 340 339 339 338 336 335 335 335 335 336 337 341 342
327 324 317 318 305 300 304 312 310 306 309 311 311 310 307 307 315 316 317 328 340 340 343 345 354 353 353 352 352 351 350 350 348 346 345 344 342 340 340 340 339 338 338 337 337 336 337 337 340
326 322 316 311 306 303 304 311 313 309 312 310 308 313 312 310 316 320 322 325 340 340 340 344 354 353 353 353 352 352 351 351 348 347 344 343 342 343 342 342 341 341 340 339 338 337 337 337 339
323 325 319 305 302 308 308 312 312 309 310 311 310 309 314 319 317 322 325 325 324 327 342 350 353 353 353 352 352 352 351 349 347 345 343 341 341 343 343 340 340 340 341 341 340 338 337 338 341
326 319 305 303 306 312 312 316 310 308 308 308 310 308 310 318 322 322 322 322 319 334 343 349 354 354 354 352 351 352 348 345 342 342 342 341 340 340 340 340 340 340 340 340 340 339 338 340 341
315 311 300 299 305 310 312 313 314 308 310 309 308 311 310 317 319 319 321 319 322 331 336 340 351 349 348 348 348 346 342 339 336 336 337 338 338 338 338 338 338 338 338 338 340 339 340 340 339
312 306 302 304 305 307 312 315 312 311 308 308 310 307 312 315 318 318 319 320 321 324 330 333 336 341 348 348 347 343 338 334 333 332 333 333 334 335 335 335 336 336 337 337 340 339 339 339 337
315 308 303 305 304 304 314 314 313 312 311 316 315 307 308 314 319 319 318 318 318 318 319 322 330 332 333 335 340 337 334 334 334 333 332 332 332 331 332 333 334 336 337 337 339 338 338 339 338
320 304 302 304 305 308 311 308 314 317 312 314 313 312 317 320 319 315 312 313 314 318 317 315 318 321 324 327 332 336 336 336 335 332 330 326 323 323 327 331 335 337 337 337 338 338 337 338 336
313 305 305 311 312 310 310 308 310 312 311 312 312 316 319 319 315 313 312 311 312 314 316 318 322 322 323 328 326 326 327 328 326 325 324 322 322 322 327 330 333 334 336 337 337 337 337 335 326
313 306 311 312 315 314 312 308 310 309 308 312 310 312 314 315 313 312 311 311 314 315 318 318 320 323 323 324 325 323 322 323 324 324 324 322 323 322 321 323 325 325 331 328 331 331 330 328 325
309 312 313 313 315 314 310 311 309 310 311 316 314 315 313 312 311 311 311 313 314 314 316 323 325 324 324 326 325 324 325 323 322 323 324 322 322 321 322 323 324 323 325 326 326 325 326 326 325
311 312 314 315 315 311 312 310 310 310 315 317 314 313 312 311 312 312 313 315 315 315 319 323 323 325 327 326 326 325 325 324 323 324 325 324 322 322 323 323 323 322 323 324 324 325 326 325 324
313 312 313 314 314 311 310 311 311 311 316 314 312 311 311 310 313 313 314 314 315 315 320 322 323 325 326 326 325 325 327 326 325 325 325 326 325 324 321 322 322 321 321 323 324 324 325 324 322
309 305 308 310 311 309 312 307 307 312 313 312 310 311 311 312 315 314 315 316 316 315 321 321 322 324 323 323 325 327 327 328 325 325 325 327 327 326 322 322 321 321 321 323 324 324 324 324 325
303 304 300 307 309 311 309 301 309 313 311 310 312 312 312 312 312 315 317 318 317 318 320 321 325 322 322 324 325 326 327 326 326 327 325 325 327 326 322 322 322 322 321 321 322 322 322 325 324
300 295 298 303 310 309 307 303 310 312 311 310 311 312 313 311 314 317 320 319 317 317 320 320 322 321 323 324 325 326 327 326 327 327 324 323 323 325 323 323 323 322 321 321 322 322 323 321 322
294 296 300 301 306 307 305 306 309 311 310 309 310 312 312 314 314 318 320 321 319 320 321 320 320 322 324 323 326 324 326 327 328 326 324 325 323 325 323 323 324 322 320 320 321 320 322 322 322
300 299 299 304 308 306 306 306 308 310 310 308 309 311 312 313 316 318 320 320 319 320 321 321 321 321 321 320 322 321 321 324 325 327 326 325 323 322 321 323 323 323 320 320 321 321 320 321 321
301 298 298 303 307 306 306 305 308 311 309 309 309 309 309 313 314 317 318 318 317 318 320 323 321 321 321 322 325 324 325 326 327 327 326 326 327 325 324 323 322 323 321 321 321 320 319 318 322
301 299 298 299 305 306 303 299 303 309 309 310 311 310 313 313 313 315 318 316 316 316 318 322 322 320 323 325 326 324 325 325 325 325 324 325 326 327 325 325 323 322 322 321 321 321 319 317 321
297 304 303 302 300 294 303 290 299 304 305 308 309 308 311 313 315 315 317 315 316 318 320 323 321 320 324 324 323 322 320 320 323 325 326 325 327 326 326 325 324 322 322 322 323 323 323 323 321
300 305 303 303 300 297 297 292 296 303 302 305 305 308 312 313 314 315 317 318 317 319 319 320 320 321 324 324 323 323 322 324 325 323 323 321 324 326 327 325 323 322 322 322 324 319 324 324 321
306 303 303 302 299 289 296 295 295 299 303 303 305 307 313 313 314 316 318 318 317 318 319 321 321 321 324 325 323 323 322 324 322 320 321 322 324 324 326 326 324 323 322 323 323 322 323 322 324
304 297 290 287 287 286 298 295 297 303 306 305 308 311 312 314 315 316 316 315 315 316 318 319 320 318 320 322 322 324 320 324 321 320 319 321 321 321 322 323 323 324 323 326 325 326 326 326 325
299 298 291 284 286 289 299 293 298 307 309 308 312 313 313 313 315 315 315 314 315 315 318 318 319 318 318 321 322 323 323 324 323 321 322 323 322 322 324 325 324 326 327 326 326 324 326 326 326
299 296 300 293 294 289 293 299 306 307 304 307 312 312 311 312 313 314 315 314 314 314 315 315 319 317 319 321 321 324 325 325 323 323 323 323 323 325 326 326 326 326 327 326 326 328 327 327 326
301 303 294 292 285 283 292 294 295 300 302 309 311 310 311 312 313 314 315 314 315 315 314 317 320 317 319 320 321 324 327 326 326 326 326 322 323 325 326 327 326 326 326 327 328 328 325 325 325
298 298 296 295 292 286 285 291 302 302 308 308 311 312 312 312 312 313 313 315 315 315 315 317 318 318 317 319 319 325 325 325 326 326 323 323 323 327 325 327 327 326 328 326 326 326 325 324 324
302 299 297 293 291 293 292 292 310 310 311 310 313 313 311 312 312 313 314 314 313 314 315 316 318 317 317 319 319 324 325 326 325 327 324 323 324 325 326 327 327 328 326 326 326 326 325 323 322
Wind_Speed
7 6 2 2 2 2 5 10 6 6 5 4 7 7 5 6 5 5 5 11 16 13 11 14 17 17 16 14 13 11 11 10 11 10 9 9 10 10 10 8 7 6 7 9 10 11 11 11 9
5 6 3 4 2 2 6 11 11 4 6 7 6 6 9 3 6 10 6 12 16 15 12 13 19 19 18 15 13 12 11 11 12 11 9 11 11 12 12 11 11 10 9 10 11 12 12 12 11
3 9 2 4 4 8 4 9 14 5 7 5 4 6 6 8 8 8 8 13 15 14 14 14 19 17 15 14 12 11 11 13 12 11 10 10 12 13 13 13 14 13 13 12 12 13 12 12 11
3 3 4 1 10 14 3 8 4 4 5 6 6 7 5 5 6 10 10 10 9 9 11 14 16 14 11 11 10 11 12 11 10 11 11 11 12 12 12 14 16 15 15 16 14 14 13 11 11
3 4 4 5 12 15 6 10 3 5 6 2 7 6 7 3 11 10 9 6 11 8 9 10 14 11 11 10 9 8 5 4 3 7 9 10 11 11 12 13 15 16 16 16 17 15 12 10 10
3 2 3 6 14 7 6 5 8 3 5 4 7 8 6 7 9 9 9 8 11 12 9 8 14 13 13 12 11 10 8 6 4 5 7 9 11 13 14 15 16 17 18 18 17 17 14 11 10
6 2 8 14 16 15 13 5 4 6 3 3 4 3 5 7 9 9 9 9 9 11 12 9 9 12 15 12 11 10 10 9 8 6 7 9 12 15 16 16 18 19 19 19 18 18 16 12 11
4 2 11 13 12 14 13 5 6 7 7 10 10 5 6 7 10 9 9 9 9 8 8 9 8 6 6 6 13 13 11 11 9 8 7 7 9 11 15 16 16 18 18 18 17 18 17 13 11
13 5 13 17 16 18 10 7 7 6 4 3 8 8 10 12 10 8 6 6 6 7 8 6 8 8 7 7 7 12 14 13 11 7 4 1 2 6 9 11 14 19 18 19 15 18 16 13 13
11 8 21 16 18 18 10 8 8 7 9 6 5 9 14 14 9 9 7 8 8 6 6 7 8 7 5 2 3 5 6 5 5 3 2 3 4 5 7 10 13 11 14 18 15 17 17 14 4
16 17 18 17 22 19 14 8 8 11 7 3 10 11 11 7 8 9 8 6 8 8 6 7 7 7 6 1 2 2 2 2 2 5 4 4 3 4 3 3 3 2 5 3 7 8 6 5 5
18 21 22 22 22 18 10 7 9 14 9 5 8 15 10 9 10 10 8 9 9 8 7 8 8 6 4 2 1 2 1 2 3 4 6 4 3 4 4 3 3 3 2 4 4 3 5 6 7
22 23 22 23 22 10 7 9 15 19 7 1 10 11 12 11 10 9 7 10 9 9 7 8 7 6 5 3 3 3 3 2 4 3 4 5 4 4 3 3 2 2 3 4 4 4 4 6 6
21 19 21 23 20 8 10 17 17 12 6 6 8 9 10 11 13 7 9 8 8 9 8 7 6 6 5 4 5 4 4 5 4 3 4 7 5 4 3 3 3 3 3 4 5 5 5 5 5
17 22 24 21 14 14 14 18 16 10 8 10 10 10 10 10 14 15 12 11 10 8 9 7 6 6 6 6 5 4 4 4 4 4 5 4 4 4 4 4 3 4 3 5 5 4 4 4 5
17 18 19 12 11 20 13 21 15 11 9 10 11 10 9 11 16 11 13 11 10 9 8 6 3 6 5 4 4 3 4 4 4 4 3 5 4 4 4 4 4 4 4 4 4 4 3 4 4
11 15 16 17 18 22 12 19 16 12 9 9 11 8 9 9 6 13 13 12 10 9 9 5 4 2 2 3 4 4 4 2 3 3 3 3 4 5 4 4 4 4 4 4 4 3 3 4 3
13 11 14 19 23 18 14 14 10 11 11 12 9 10 9 9 15 16 15 13 10 9 9 6 3 3 2 3 3 2 2 2 3 2 3 5 4 5 4 4 4 4 3 3 3 4 3 3 4
14 14 20 24 21 21 4 22 13 10 8 8 10 9 10 10 10 16 14 13 10 10 9 6 4 4 1 2 1 1 2 2 2 3 6 6 5 6 4 3 3 4 5 5 5 3 3 3 3
18 19 24 23 20 5 19 22 15 9 7 9 11 10 6 11 13 13 12 8 8 10 9 6 5 3 1 1 2 2 1 3 2 3 2 3 5 6 4 4 4 5 4 5 5 4 2 2 3
21 20 21 19 21 17 5 7 6 5 4 7 10 8 16 22 18 14 14 11 9 9 8 7 5 5 2 2 3 2 2 3 2 1 1 2 1 5 4 4 4 4 4 4 4 5 5 3 1
21 19 22 22 17 8 0 6 4 6 10 10 11 10 16 19 16 14 13 9 9 8 8 7 7 4 2 2 4 3 1 2 2 1 1 2 4 3 3 4 4 4 2 5 5 4 4 5 3
21 16 20 22 16 6 5 2 6 4 9 14 5 12 16 18 19 16 14 11 9 8 8 8 7 5 4 3 2 2 3 3 2 2 4 2 2 2 4 3 4 4 3 4 7 6 7 5 3
24 16 17 16 8 3 6 7 9 6 7 6 4 7 15 15 14 14 13 12 8 8 8 7 7 5 4 4 4 6 5 5 4 3 2 2 0 1 4 4 4 3 3 5 5 6 5 5 4
20 14 9 3 1 7 5 4 11 10 8 7 10 13 13 15 16 15 14 11 8 9 8 7 8 5 3 5 5 6 4 5 4 3 2 4 1 1 3 3 3 3 3 4 5 6 5 6 6
18 15 8 8 5 5 7 8 18 16 10 10 14 14 14 14 14 13 13 10 9 9 9 8 8 6 4 5 6 5 4 2 2 1 1 3 2 2 3 4 4 4 5 4 5 3 4 7 8
16 14 13 5 1 2 5 8 3 9 8 11 16 16 13 13 12 12 12 10 9 9 9 8 8 6 7 7 5 5 4 3 3 2 2 3 3 2 4 5 5 5 5 5 6 6 9 9 8
25 6 7 1 8 5 5 7 6 8 9 12 13 12 10 10 12 11 11 10 8 9 8 6 8 8 7 6 5 6 5 4 3 2 4 4 3 3 5 5 6 6 6 7 8 9 9 10 6
13 10 5 8 7 6 2 8 9 7 14 14 14 13 14 14 12 11 9 9 9 8 8 7 7 7 7 6 5 6 4 5 5 5 4 4 3 4 5 5 6 6 9 8 8 10 10 11 11
15 10 8 10 5 6 6 7 8 13 12 13 15 13 11 12 11 11 11 10 10 9 8 8 6 8 7 6 5 5 6 6 6 6 4 4 6 5 6 6 6 8 7 8 10 11 10 10 10
Wind_Direction
168 163 191 275 21 143 256 277 304 55 59 82 88 93 86 97 94 183 210 112 122 142 161 169 170 172 180 188 190 192 195 200 210 221 228 225 232 249 267 273 274 269 265 266 262 260 263 272 277
183 173 246 267 174 305 292 306 286 43 151 122 131 137 92 60 98 127 109 131 142 152 160 174 177 178 185 190 192 196 204 208 217 227 231 236 238 240 252 259 263 262 259 254 257 252 256 257 267
280 232 309 190 214 225 255 264 329 21 15 130 152 99 105 141 114 136 162 134 150 164 167 175 180 181 188 192 193 199 208 217 221 226 234 238 243 245 247 249 259 260 259 256 253 255 248 256 262
226 279 290 259 253 269 155 285 243 18 347 174 137 111 58 146 119 148 161 160 161 138 164 164 175 177 187 197 204 210 221 230 234 240 247 249 250 252 247 252 255 256 256 260 252 250 247 252 262
238 262 230 263 268 268 278 231 103 22 319 353 135 112 107 70 120 131 137 130 107 106 125 144 158 163 176 197 209 224 233 225 243 262 262 259 260 260 262 260 258 257 253 251 251 242 239 240 261
289 154 310 274 282 311 281 55 356 9 297 28 37 109 173 151 125 151 142 132 115 135 131 144 151 163 173 188 193 170 169 167 205 241 259 264 263 261 259 258 257 256 257 254 247 238 231 232 244
228 292 263 279 291 308 308 71 193 242 216 112 117 92 147 158 169 156 133 123 115 128 147 155 163 179 179 181 174 178 177 193 209 229 255 267 269 267 266 265 261 255 251 253 244 229 227 220 238
222 238 278 278 286 288 293 222 201 230 196 167 144 156 181 210 158 134 129 134 149 162 165 165 178 155 144 170 179 191 189 204 204 213 240 249 266 279 272 268 263 257 249 250 239 224 224 221 232
249 250 262 267 274 278 317 355 328 335 141 203 177 152 154 155 140 131 151 167 175 180 169 141 127 120 143 184 197 197 210 208 199 219 230 256 270 258 268 276 257 247 246 242 230 220 223 222 229
227 234 249 259 269 279 300 331 329 353 312 261 97 90 136 152 153 157 175 182 198 145 102 108 107 107 91 15 99 203 236 170 183 190 245 210 240 254 270 277 281 279 251 234 221 214 219 216 202
239 240 251 254 259 274 287 324 309 305 297 302 162 155 160 149 162 183 193 185 140 138 124 130 119 111 108 70 336 297 319 161 175 211 214 221 241 258 276 286 287 275 268 239 208 204 211 191 195
245 245 249 255 258 254 262 293 294 278 250 248 147 163 156 166 184 187 191 148 138 116 120 107 110 116 123 119 281 287 146 184 228 223 214 201 230 241 246 259 282 239 220 195 180 190 193 209 206
242 246 253 260 266 250 272 263 262 269 266 139 147 145 171 178 186 195 159 132 135 116 119 114 116 130 149 168 243 259 274 272 267 244 233 198 212 242 250 260 256 257 211 189 196 203 198 213 224
248 257 255 256 267 251 259 265 262 251 248 201 157 163 171 179 189 140 136 141 124 127 123 127 130 157 162 197 222 237 235 243 248 258 258 228 191 217 226 259 265 248 213 200 190 203 212 220 216
265 268 272 270 267 266 252 253 256 250 220 213 197 203 204 195 155 167 157 149 140 138 128 138 175 172 179 217 237 236 239 241 241 249 249 220 197 217 218 243 257 244 226 194 184 205 208 225 236
279 273 263 256 269 267 252 259 244 233 217 236 225 218 189 196 180 163 149 134 130 126 135 152 132 144 208 215 255 227 237 238 235 242 229 221 237 238 226 233 238 231 203 187 180 181 206 239 212
254 258 262 268 246 262 242 253 256 201 213 248 227 218 212 204 127 148 143 137 133 130 131 145 130 134 218 295 277 231 267 259 230 234 207 222 240 251 231 223 242 217 194 179 178 183 176 211 179
233 255 252 258 257 255 265 309 201 204 201 227 239 218 216 150 162 146 139 136 134 133 125 126 143 204 195 285 313 248 274 283 232 247 211 212 227 250 253 226 242 185 175 180 160 193 203 188 173
238 242 246 254 254 248 347 269 253 208 218 225 235 234 230 163 143 136 137 134 130 126 132 157 185 213 156 308 302 295 264 253 229 230 239 228 212 229 249 210 240 186 175 183 181 172 203 219 157
226 246 260 273 277 228 209 248 249 206 215 218 228 245 207 120 129 132 134 126 135 138 148 172 184 185 187 263 250 175 252 270 201 199 244 250 224 205 216 210 219 193 164 181 176 156 105 136 173
238 230 250 259 277 285 284 321 314 266 249 275 250 220 137 145 148 150 144 142 140 144 155 172 174 147 170 337 358 357 2 337 350 321 271 283 254 175 185 193 178 193 160 171 157 144 137 147 151
239 222 236 250 261 259 353 281 302 301 298 295 275 129 143 151 153 149 147 141 145 152 156 149 148 156 170 68 49 53 87 299 278 230 77 58 44 188 169 167 180 188 162 139 132 133 146 130 155
240 221 229 240 248 238 284 292 252 269 289 291 187 150 155 157 151 155 145 141 148 147 153 148 145 145 162 134 124 63 13 299 307 46 92 86 19 13 172 165 140 167 178 151 128 128 140 147 149
229 232 239 240 228 237 221 176 270 232 233 212 142 143 147 138 136 131 138 139 146 141 140 143 152 172 194 153 84 80 55 12 31 47 64 72 85 251 160 149 132 132 113 143 154 156 172 124 135
217 219 239 300 245 219 217 281 246 264 228 171 131 117 126 131 135 139 145 146 140 145 151 156 151 166 200 136 86 106 81 50 52 49 29 17 35 112 128 121 112 125 150 132 142 149 159 155 140
222 201 196 207 181 244 252 243 250 235 206 119 137 128 122 128 140 141 140 144 144 149 155 168 159 160 145 124 106 121 104 93 82 26 355 47 76 133 133 130 141 146 155 139 138 117 97 107 111
231 207 188 164 257 190 235 277 20 144 138 120 129 129 133 135 140 141 143 146 147 149 165 169 157 166 139 131 134 140 144 142 152 141 20 32 89 119 146 151 148 153 147 132 107 100 92 84 87
211 178 148 65 197 247 294 299 233 156 178 115 128 132 136 137 139 144 145 146 151 153 163 154 148 153 158 154 165 152 170 174 174 135 69 52 104 107 114 118 113 111 111 100 105 99 96 95 93
219 200 140 131 145 166 223 270 210 161 136 133 143 146 148 150 144 147 146 146 148 148 149 150 145 138 141 118 137 136 140 109 88 77 69 32 66 117 106 115 111 114 120 112 101 104 109 109 115
211 170 148 173 214 204 175 266 133 147 150 136 146 148 146 150 145 149 146 142 145 153 153 158 164 147 154 149 124 128 106 100 98 91 79 59 64 78 98 96 105 115 107 109 115 118 113 119 119